Temp
-28 -28 -29 -29 -30 -30 -31 -32 -32 -33 -33 -34 -34 -34 -34 -34 -33 -33 -34 -35 -35 -34 -34 -33 -32 -31 -30 -30 -30 -29 -29 -29 -28 -28 -27 -27 -27 -27 -26 -25 -24 -23 -21 -21 -20 -19 -19 -18 -17 -17 -17 -17 -17 -16 -16 -17 -16 -16 -15 -15 -15 -15 -15 -14 -14 -14 -14 -14 -14 -14 -13 -14 -14 -13
-28 -28 -29 -29 -30 -31 -31 -32 -33 -33 -34 -34 -35 -35 -35 -35 -34 -34 -34 -35 -35 -35 -34 -34 -33 -32 -31 -30 -30 -30 -29 -29 -29 -28 -28 -27 -27 -27 -26 -26 -25 -24 -22 -21 -20 -20 -19 -18 -17 -17 -18 -17 -17 -17 -17 -17 -17 -16 -15 -15 -15 -15 -15 -14 -14 -14 -14 -14 -14 -14 -14 -14 -14 -14
-28 -29 -29 -30 -30 -31 -31 -32 -33 -33 -34 -35 -35 -36 -36 -36 -35 -35 -34 -35 -35 -35 -35 -34 -34 -33 -32 -31 -30 -30 -29 -29 -29 -28 -28 -27 -27 -27 -27 -26 -26 -25 -23 -22 -21 -20 -20 -19 -18 -17 -18 -17 -17 -17 -17 -17 -17 -16 -16 -15 -15 -15 -15 -14 -14 -14 -14 -15 -15 -15 -15 -15 -14 -15
-28 -29 -29 -30 -31 -31 -32 -33 -33 -34 -34 -35 -36 -36 -37 -37 -36 -36 -35 -36 -36 -35 -35 -35 -34 -33 -33 -32 -31 -30 -30 -29 -29 -29 -28 -28 -27 -27 -27 -26 -26 -25 -24 -23 -22 -21 -20 -19 -18 -17 -18 -17 -17 -17 -17 -17 -17 -16 -16 -16 -16 -15 -15 -14 -15 -14 -15 -15 -15 -15 -15 -15 -15 -15
-29 -29 -30 -30 -31 -31 -32 -33 -34 -34 -35 -36 -36 -37 -37 -37 -37 -37 -36 -36 -37 -36 -35 -35 -35 -34 -33 -33 -31 -30 -30 -30 -29 -29 -28 -28 -28 -27 -27 -27 -26 -26 -25 -24 -23 -21 -20 -19 -18 -17 -18 -18 -17 -17 -16 -16 -17 -16 -16 -16 -16 -16 -15 -15 -15 -15 -15 -16 -16 -15 -15 -16 -15 -15
-29 -30 -30 -31 -31 -32 -32 -33 -34 -35 -35 -36 -37 -37 -38 -38 -38 -37 -37 -37 -37 -37 -36 -35 -35 -35 -34 -33 -32 -31 -30 -30 -29 -29 -29 -28 -28 -27 -27 -27 -27 -26 -26 -25 -24 -22 -21 -20 -19 -18 -17 -18 -18 -17 -17 -16 -16 -17 -16 -16 -16 -16 -16 -15 -16 -16 -15 -16 -16 -15 -16 -16 -15 -15
-29 -30 -30 -31 -31 -32 -32 -33 -34 -35 -36 -37 -37 -37 -37 -38 -38 -37 -37 -37 -37 -37 -37 -36 -35 -35 -34 -34 -33 -32 -31 -30 -30 -29 -29 -28 -28 -28 -27 -27 -27 -26 -26 -25 -25 -23 -22 -21 -19 -18 -17 -17 -18 -18 -17 -17 -17 -17 -16 -16 -16 -16 -16 -16 -16 -16 -16 -16 -16 -16 -16 -16 -16 -16
-30 -30 -30 -31 -31 -32 -32 -33 -34 -35 -36 -37 -37 -37 -38 -38 -38 -38 -37 -37 -37 -37 -37 -37 -36 -35 -35 -34 -34 -33 -32 -31 -30 -29 -29 -29 -28 -28 -28 -27 -27 -27 -26 -26 -25 -24 -23 -21 -20 -19 -18 -17 -18 -18 -18 -17 -17 -17 -16 -16 -16 -16 -16 -17 -17 -17 -17 -16 -16 -16 -16 -16 -16 -16
-30 -30 -30 -31 -31 -32 -32 -33 -34 -35 -36 -37 -37 -38 -38 -38 -38 -38 -37 -37 -37 -37 -37 -37 -37 -36 -35 -34 -34 -33 -33 -31 -30 -30 -29 -29 -29 -28 -28 -28 -27 -27 -27 -26 -26 -25 -24 -22 -21 -19 -18 -18 -18 -18 -18 -18 -17 -17 -16 -16 -16 -16 -16 -17 -17 -17 -17 -17 -17 -17 -17 -17 -16 -16
-30 -30 -30 -31 -31 -32 -32 -33 -34 -35 -36 -37 -37 -38 -38 -38 -37 -37 -37 -37 -37 -37 -37 -36 -36 -36 -35 -34 -34 -34 -33 -32 -31 -30 -30 -29 -29 -28 -28 -28 -28 -27 -27 -27 -26 -25 -25 -23 -22 -21 -19 -18 -18 -18 -18 -18 -18 -17 -17 -16 -16 -16 -17 -17 -16 -17 -17 -17 -17 -17 -17 -17 -17 -17
-30 -30 -30 -31 -31 -32 -32 -33 -34 -35 -36 -37 -37 -38 -38 -37 -37 -37 -37 -37 -37 -37 -37 -36 -36 -36 -35 -35 -34 -34 -33 -32 -32 -31 -30 -29 -29 -29 -28 -28 -28 -28 -27 -27 -26 -26 -25 -24 -23 -22 -20 -19 -18 -18 -18 -18 -18 -18 -17 -17 -17 -17 -17 -17 -17 -17 -17 -17 -17 -17 -17 -17 -17 -16
-30 -30 -30 -31 -31 -32 -32 -33 -34 -35 -36 -37 -37 -37 -37 -37 -37 -37 -37 -38 -37 -37 -37 -37 -37 -36 -36 -35 -34 -34 -33 -33 -32 -31 -31 -30 -29 -29 -29 -28 -28 -28 -27 -27 -27 -26 -26 -25 -24 -23 -22 -20 -19 -18 -18 -18 -18 -18 -18 -18 -18 -18 -18 -18 -18 -18 -17 -17 -17 -17 -17 -17 -17 -16
-30 -30 -30 -31 -31 -32 -32 -33 -34 -35 -36 -37 -37 -37 -37 -37 -37 -37 -38 -38 -38 -37 -37 -37 -37 -37 -36 -36 -35 -34 -33 -33 -32 -32 -31 -30 -29 -29 -29 -28 -28 -28 -28 -27 -27 -27 -26 -25 -25 -24 -23 -21 -20 -18 -18 -19 -19 -18 -18 -18 -18 -18 -18 -18 -19 -18 -18 -18 -17 -17 -17 -18 -17 -16
-30 -30 -31 -31 -31 -32 -32 -33 -34 -35 -36 -37 -37 -37 -37 -37 -37 -37 -38 -38 -37 -37 -37 -37 -37 -37 -36 -36 -36 -35 -34 -33 -32 -32 -31 -31 -30 -29 -29 -28 -28 -28 -28 -28 -27 -27 -27 -26 -25 -24 -23 -22 -21 -20 -19 -19 -19 -19 -18 -18 -18 -19 -19 -19 -19 -19 -19 -18 -18 -18 -18 -18 -17 -16
-30 -31 -31 -31 -31 -32 -32 -33 -34 -35 -36 -37 -37 -37 -37 -37 -37 -37 -37 -37 -37 -37 -37 -37 -37 -37 -37 -36 -36 -35 -35 -34 -33 -32 -31 -31 -30 -29 -29 -28 -28 -28 -28 -28 -28 -28 -27 -27 -26 -25 -24 -23 -23 -21 -20 -19 -19 -19 -19 -19 -18 -18 -18 -18 -19 -19 -19 -19 -19 -18 -18 -18 -18 -17
-30 -31 -31 -31 -31 -32 -32 -33 -34 -35 -36 -37 -37 -37 -37 -37 -37 -37 -37 -37 -37 -37 -37 -37 -37 -37 -37 -37 -36 -36 -35 -34 -34 -33 -32 -31 -31 -30 -29 -28 -29 -29 -28 -28 -28 -28 -27 -27 -27 -26 -25 -24 -24 -23 -21 -20 -19 -19 -19 -19 -19 -19 -18 -18 -19 -19 -20 -19 -19 -19 -19 -18 -18 -17
-30 -31 -31 -31 -31 -32 -32 -33 -34 -35 -36 -37 -37 -37 -37 -37 -37 -37 -36 -37 -37 -37 -37 -37 -36 -37 -37 -37 -36 -36 -35 -35 -34 -33 -32 -31 -31 -30 -29 -28 -29 -29 -29 -28 -28 -28 -28 -27 -27 -27 -26 -25 -24 -24 -23 -21 -20 -20 -20 -20 -20 -20 -19 -19 -19 -19 -20 -20 -20 -19 -19 -18 -18 -17
-30 -31 -31 -31 -31 -32 -32 -33 -34 -35 -36 -37 -37 -37 -37 -37 -37 -36 -36 -37 -37 -36 -37 -36 -36 -36 -36 -36 -36 -36 -36 -35 -34 -33 -32 -31 -31 -30 -29 -29 -29 -29 -29 -28 -28 -28 -28 -27 -27 -27 -27 -26 -25 -24 -24 -23 -22 -21 -20 -20 -20 -20 -20 -19 -19 -19 -19 -20 -20 -20 -20 -19 -18 -18
-30 -31 -31 -31 -31 -32 -32 -33 -33 -35 -36 -37 -37 -37 -37 -37 -36 -36 -36 -36 -36 -36 -36 -36 -36 -36 -36 -36 -36 -36 -36 -35 -34 -34 -33 -32 -31 -30 -30 -29 -29 -29 -29 -29 -28 -28 -28 -28 -27 -27 -27 -26 -26 -25 -25 -24 -23 -22 -21 -21 -20 -20 -20 -20 -20 -19 -18 -19 -19 -20 -20 -20 -19 -18
-30 -31 -31 -31 -31 -32 -32 -33 -33 -34 -36 -36 -37 -37 -37 -37 -36 -36 -36 -36 -36 -36 -36 -35 -35 -36 -36 -36 -36 -36 -35 -35 -35 -34 -33 -32 -31 -31 -30 -30 -29 -29 -29 -29 -29 -28 -28 -28 -28 -27 -27 -27 -26 -26 -25 -25 -24 -23 -22 -21 -21 -21 -21 -20 -20 -19 -19 -19 -19 -19 -20 -20 -19 -18
-30 -31 -31 -31 -31 -32 -32 -33 -33 -34 -35 -36 -36 -36 -37 -37 -36 -36 -36 -36 -36 -36 -35 -35 -35 -35 -35 -35 -35 -35 -35 -35 -35 -34 -33 -32 -32 -31 -31 -30 -30 -29 -29 -29 -29 -29 -29 -28 -28 -27 -27 -27 -27 -26 -26 -26 -25 -24 -23 -22 -22 -21 -21 -21 -21 -20 -19 -19 -19 -19 -19 -20 -20 -19
-30 -31 -31 -31 -31 -32 -32 -33 -33 -34 -35 -36 -36 -36 -37 -37 -36 -36 -36 -36 -36 -35 -35 -35 -35 -35 -34 -34 -35 -35 -35 -35 -35 -34 -33 -32 -32 -32 -31 -31 -31 -30 -30 -29 -29 -29 -29 -29 -28 -28 -27 -27 -27 -27 -26 -26 -26 -25 -24 -23 -22 -22 -22 -21 -21 -21 -20 -20 -19 -19 -19 -20 -20 -20
-30 -31 -31 -31 -31 -31 -32 -33 -33 -33 -34 -36 -36 -36 -36 -36 -36 -36 -36 -36 -36 -35 -35 -35 -35 -34 -34 -34 -34 -34 -34 -34 -34 -34 -33 -33 -32 -32 -32 -31 -31 -31 -30 -30 -29 -29 -29 -29 -28 -28 -28 -27 -27 -27 -27 -26 -26 -26 -25 -24 -23 -23 -22 -22 -22 -21 -21 -20 -20 -19 -19 -19 -19 -20
-31 -31 -31 -31 -31 -31 -32 -32 -33 -33 -34 -35 -36 -36 -36 -36 -36 -36 -36 -36 -36 -35 -35 -35 -34 -34 -34 -34 -34 -34 -34 -34 -34 -34 -33 -33 -33 -32 -32 -32 -31 -31 -30 -30 -29 -29 -29 -29 -29 -28 -28 -28 -27 -27 -27 -27 -27 -26 -26 -25 -24 -24 -23 -22 -22 -22 -21 -21 -20 -20 -19 -19 -19 -19
-31 -31 -31 -31 -31 -31 -31 -32 -33 -33 -34 -35 -36 -36 -36 -36 -36 -36 -35 -35 -36 -35 -35 -35 -34 -34 -34 -34 -34 -34 -34 -34 -34 -33 -33 -33 -33 -33 -32 -32 -32 -31 -31 -30 -30 -29 -29 -29 -29 -29 -28 -28 -28 -27 -27 -27 -27 -27 -26 -26 -25 -25 -24 -23 -23 -22 -22 -21 -21 -20 -19 -19 -19 -19
-31 -31 -31 -32 -32 -31 -31 -32 -33 -33 -34 -34 -35 -36 -36 -36 -36 -36 -35 -35 -35 -35 -35 -35 -34 -34 -34 -34 -34 -34 -33 -33 -33 -33 -33 -33 -33 -33 -32 -32 -32 -31 -31 -30 -30 -30 -29 -29 -29 -29 -28 -28 -28 -28 -27 -27 -27 -27 -26 -26 -26 -25 -25 -24 -23 -23 -22 -22 -21 -21 -20 -20 -19 -19
-31 -31 -32 -32 -32 -32 -31 -32 -33 -33 -33 -34 -35 -35 -36 -36 -36 -35 -35 -35 -35 -35 -35 -35 -35 -34 -34 -34 -34 -34 -33 -33 -33 -33 -33 -32 -32 -32 -32 -32 -31 -31 -31 -31 -30 -30 -30 -29 -29 -29 -28 -28 -28 -28 -27 -27 -27 -27 -27 -26 -26 -25 -25 -25 -24 -23 -23 -22 -22 -21 -21 -20 -20 -19
-31 -31 -32 -32 -32 -32 -32 -32 -33 -33 -33 -34 -34 -35 -36 -36 -36 -36 -35 -35 -35 -35 -35 -35 -35 -34 -34 -34 -34 -34 -33 -33 -33 -33 -33 -32 -32 -32 -32 -32 -32 -31 -31 -31 -31 -30 -30 -29 -29 -29 -29 -28 -28 -28 -27 -27 -27 -27 -27 -26 -26 -26 -25 -25 -25 -24 -23 -23 -23 -22 -22 -21 -20 -20
-31 -31 -32 -32 -32 -32 -32 -32 -32 -33 -33 -33 -34 -34 -35 -36 -36 -36 -35 -35 -35 -35 -35 -35 -34 -34 -34 -34 -34 -34 -33 -33 -33 -33 -33 -33 -32 -32 -32 -32 -32 -31 -31 -31 -30 -30 -29 -29 -29 -29 -29 -28 -28 -28 -27 -27 -27 -27 -27 -27 -26 -26 -26 -25 -25 -25 -24 -24 -24 -23 -23 -22 -21 -20
-31 -31 -32 -32 -32 -32 -32 -32 -32 -33 -33 -33 -33 -34 -35 -35 -36 -36 -35 -35 -35 -35 -35 -35 -34 -34 -34 -34 -34 -33 -33 -33 -33 -33 -33 -33 -32 -32 -32 -32 -31 -31 -31 -31 -30 -30 -30 -29 -29 -29 -29 -28 -28 -28 -27 -27 -27 -27 -27 -27 -27 -26 -26 -26 -26 -25 -25 -25 -25 -24 -24 -23 -22 -22
-31 -31 -32 -32 -32 -32 -32 -32 -32 -32 -33 -33 -33 -34 -34 -35 -35 -36 -36 -35 -35 -35 -35 -35 -34 -34 -34 -34 -34 -33 -33 -33 -33 -33 -32 -32 -32 -32 -32 -31 -31 -31 -31 -31 -30 -30 -30 -29 -29 -29 -28 -28 -28 -28 -27 -27 -27 -27 -27 -27 -27 -27 -27 -26 -26 -26 -26 -26 -25 -25 -25 -24 -23 -23
-31 -31 -32 -32 -32 -32 -32 -32 -32 -32 -33 -33 -33 -33 -34 -34 -35 -35 -36 -35 -35 -35 -35 -35 -34 -34 -34 -34 -34 -33 -33 -33 -33 -33 -32 -32 -32 -32 -32 -31 -31 -31 -31 -31 -30 -30 -30 -29 -29 -29 -28 -28 -28 -28 -28 -27 -27 -27 -27 -27 -27 -27 -27 -27 -26 -26 -26 -26 -26 -25 -25 -24 -24 -24
-31 -31 -32 -32 -32 -32 -32 -32 -32 -32 -32 -33 -33 -33 -34 -34 -34 -35 -35 -35 -35 -35 -35 -35 -34 -34 -34 -34 -34 -33 -33 -33 -33 -33 -33 -32 -32 -32 -32 -32 -31 -31 -31 -31 -30 -30 -30 -29 -29 -29 -28 -28 -28 -28 -28 -27 -27 -27 -27 -27 -27 -27 -27 -27 -26 -26 -26 -26 -26 -25 -25 -25 -24 -24
-31 -31 -32 -32 -32 -32 -32 -32 -32 -32 -32 -33 -33 -33 -33 -34 -34 -35 -35 -35 -35 -34 -34 -34 -34 -34 -34 -34 -34 -33 -33 -33 -33 -33 -33 -32 -32 -32 -32 -32 -32 -31 -31 -30 -30 -30 -30 -29 -29 -29 -29 -28 -28 -28 -28 -28 -28 -27 -27 -27 -27 -27 -27 -27 -26 -26 -26 -26 -26 -26 -25 -25 -24 -24
-31 -31 -32 -32 -32 -32 -32 -32 -32 -32 -32 -32 -33 -33 -33 -33 -34 -34 -34 -35 -35 -34 -34 -34 -34 -34 -34 -34 -34 -33 -33 -33 -33 -33 -33 -32 -32 -32 -32 -32 -32 -32 -31 -30 -30 -30 -30 -29 -29 -29 -29 -28 -28 -28 -28 -28 -28 -28 -27 -27 -27 -27 -27 -27 -26 -26 -26 -26 -26 -25 -25 -25 -25 -24
-31 -31 -32 -32 -32 -32 -32 -32 -32 -32 -32 -32 -33 -33 -33 -33 -34 -34 -34 -34 -35 -34 -34 -34 -34 -34 -34 -34 -34 -33 -33 -33 -33 -33 -33 -32 -32 -32 -32 -32 -32 -32 -31 -31 -30 -30 -30 -29 -29 -29 -29 -28 -28 -28 -28 -28 -28 -28 -27 -27 -27 -27 -27 -27 -26 -26 -26 -26 -25 -25 -25 -25 -25 -24
-31 -31 -32 -32 -32 -32 -32 -32 -32 -32 -32 -32 -33 -33 -33 -33 -33 -34 -34 -34 -34 -34 -34 -34 -34 -34 -34 -34 -34 -33 -33 -33 -33 -33 -33 -33 -32 -32 -32 -32 -32 -32 -31 -31 -30 -30 -30 -29 -29 -29 -29 -28 -28 -28 -28 -28 -28 -28 -28 -28 -28 -27 -27 -27 -26 -26 -26 -26 -25 -25 -25 -25 -24 -24
-31 -31 -32 -32 -32 -32 -32 -32 -32 -32 -32 -32 -33 -33 -33 -33 -33 -33 -34 -34 -34 -34 -34 -34 -34 -34 -34 -34 -34 -34 -33 -33 -33 -33 -33 -33 -32 -32 -32 -32 -32 -32 -31 -31 -31 -30 -30 -30 -29 -29 -29 -28 -28 -28 -28 -28 -28 -28 -28 -28 -28 -27 -27 -27 -27 -26 -26 -26 -25 -25 -25 -25 -24 -24
-31 -31 -32 -32 -32 -32 -32 -32 -32 -33 -33 -33 -33 -33 -33 -33 -33 -33 -33 -34 -34 -34 -34 -34 -34 -33 -33 -33 -33 -33 -33 -33 -33 -33 -33 -33 -32 -32 -32 -32 -32 -32 -31 -31 -31 -31 -30 -30 -30 -29 -29 -28 -28 -28 -28 -28 -28 -28 -28 -28 -28 -28 -27 -27 -27 -26 -26 -26 -25 -25 -25 -25 -24 -24
-31 -31 -32 -32 -32 -32 -32 -32 -32 -33 -33 -33 -33 -33 -33 -33 -33 -33 -33 -34 -34 -34 -34 -34 -34 -33 -33 -33 -33 -33 -33 -33 -33 -33 -33 -33 -32 -32 -32 -32 -32 -32 -31 -31 -31 -31 -30 -30 -30 -29 -29 -29 -29 -28 -28 -28 -28 -28 -28 -28 -28 -28 -27 -27 -27 -26 -26 -26 -26 -25 -25 -25 -24 -24
-31 -31 -32 -32 -32 -32 -32 -32 -32 -33 -33 -33 -33 -33 -33 -33 -33 -33 -33 -34 -34 -34 -34 -34 -34 -33 -33 -33 -33 -33 -33 -33 -33 -33 -33 -33 -32 -32 -32 -32 -32 -32 -31 -31 -31 -31 -31 -30 -30 -30 -30 -29 -29 -29 -29 -29 -28 -28 -28 -28 -28 -28 -27 -27 -27 -26 -26 -26 -26 -25 -25 -25 -24 -24
-31 -31 -32 -32 -32 -32 -32 -32 -32 -33 -33 -33 -33 -33 -33 -33 -33 -33 -33 -33 -34 -34 -34 -34 -34 -34 -33 -33 -33 -33 -33 -33 -33 -32 -33 -32 -32 -32 -32 -32 -32 -32 -32 -31 -31 -31 -31 -30 -30 -30 -30 -30 -29 -29 -29 -29 -29 -28 -28 -28 -28 -27 -27 -27 -27 -26 -26 -26 -26 -25 -25 -25 -24 -24
-31 -31 -32 -32 -32 -32 -32 -32 -32 -33 -33 -33 -33 -33 -33 -33 -33 -33 -33 -33 -33 -34 -34 -34 -34 -34 -33 -33 -33 -33 -32 -32 -32 -32 -32 -32 -32 -32 -32 -32 -32 -32 -32 -31 -31 -31 -31 -31 -30 -30 -30 -30 -29 -29 -29 -29 -29 -28 -28 -28 -28 -27 -27 -27 -27 -26 -26 -26 -26 -25 -25 -25 -24 -24
-31 -31 -32 -32 -32 -32 -32 -32 -33 -33 -33 -33 -33 -33 -33 -33 -33 -33 -33 -33 -33 -33 -34 -34 -34 -34 -34 -33 -33 -33 -33 -32 -32 -32 -32 -32 -32 -32 -32 -32 -32 -32 -32 -32 -31 -31 -31 -31 -30 -30 -30 -30 -30 -29 -29 -29 -29 -29 -28 -28 -28 -28 -27 -27 -27 -26 -26 -26 -26 -25 -25 -25 -24 -24
-31 -31 -32 -32 -32 -32 -32 -32 -33 -33 -33 -33 -33 -33 -33 -33 -33 -33 -33 -33 -33 -33 -34 -34 -34 -34 -34 -33 -33 -33 -33 -33 -32 -32 -32 -32 -32 -32 -32 -32 -32 -32 -32 -32 -31 -31 -31 -31 -31 -30 -30 -30 -30 -30 -29 -29 -29 -29 -28 -28 -28 -28 -28 -27 -27 -26 -26 -26 -25 -25 -25 -25 -25 -25
Height
5282 5272 5262 5253 5244 5236 5228 5220 5213 5206 5200 5194 5189 5184 5180 5179 5180 5181 5182 5178 5174 5177 5181 5184 5187 5192 5199 5205 5211 5219 5226 5234 5241 5248 5257 5266 5275 5283 5291 5299 5308 5318 5330 5342 5354 5366 5377 5389 5400 5410 5418 5427 5438 5448 5457 5468 5477 5487 5496 5504 5510 5513 5516 5522 5530 5537 5542 5547 5554 5562 5569 5576 5585 5592
5278 5268 5258 5249 5241 5232 5224 5216 5209 5203 5197 5191 5186 5181 5177 5175 5174 5175 5177 5172 5170 5174 5177 5178 5181 5184 5189 5195 5201 5208 5216 5224 5231 5239 5248 5257 5266 5274 5282 5291 5301 5310 5321 5333 5344 5356 5367 5379 5390 5400 5409 5418 5428 5440 5449 5458 5469 5479 5487 5495 5502 5508 5511 5516 5522 5530 5536 5542 5547 5553 5559 5566 5574 5582
5275 5265 5255 5246 5237 5229 5220 5213 5207 5200 5194 5188 5184 5179 5176 5173 5171 5171 5172 5169 5167 5171 5172 5172 5174 5177 5180 5186 5191 5198 5205 5213 5221 5230 5239 5248 5257 5266 5275 5284 5293 5303 5312 5323 5334 5346 5357 5368 5380 5390 5400 5409 5418 5430 5440 5449 5459 5470 5479 5486 5493 5500 5506 5509 5514 5521 5529 5535 5540 5545 5551 5556 5564 5572
5271 5261 5252 5243 5234 5226 5218 5211 5205 5198 5192 5187 5183 5179 5175 5172 5170 5168 5169 5167 5165 5167 5168 5168 5169 5171 5174 5178 5183 5189 5195 5203 5212 5221 5230 5240 5248 5258 5267 5277 5286 5295 5304 5314 5324 5336 5347 5359 5370 5380 5391 5400 5409 5420 5431 5440 5449 5459 5469 5477 5484 5492 5499 5502 5507 5513 5521 5526 5531 5536 5542 5548 5555 5562
5267 5258 5249 5239 5230 5222 5215 5209 5202 5196 5191 5186 5182 5178 5175 5172 5170 5168 5167 5166 5165 5163 5164 5165 5165 5166 5168 5171 5175 5180 5187 5194 5203 5212 5222 5231 5240 5250 5260 5269 5278 5287 5296 5305 5316 5326 5338 5349 5360 5371 5381 5390 5399 5409 5420 5430 5439 5450 5460 5467 5475 5483 5491 5496 5499 5504 5513 5518 5522 5527 5533 5540 5547 5555
5264 5255 5246 5236 5228 5220 5213 5206 5201 5195 5190 5186 5182 5178 5175 5173 5170 5167 5165 5165 5164 5163 5161 5160 5161 5161 5162 5165 5168 5172 5179 5186 5193 5203 5214 5223 5232 5242 5251 5261 5270 5280 5289 5298 5307 5317 5328 5340 5351 5361 5371 5380 5389 5398 5409 5420 5430 5441 5450 5458 5466 5474 5485 5493 5492 5493 5503 5511 5515 5520 5525 5532 5539 5547
5263 5253 5244 5235 5226 5218 5211 5204 5199 5194 5189 5185 5182 5178 5175 5173 5170 5167 5164 5162 5162 5162 5160 5157 5156 5156 5157 5160 5162 5164 5171 5178 5185 5194 5205 5214 5224 5233 5243 5253 5262 5272 5281 5290 5299 5308 5318 5330 5341 5352 5361 5369 5378 5388 5399 5410 5420 5431 5441 5449 5457 5466 5478 5487 5483 5481 5492 5502 5508 5513 5518 5524 5531 5539
5261 5252 5243 5234 5225 5217 5209 5203 5197 5192 5187 5184 5181 5178 5174 5171 5169 5166 5163 5160 5158 5158 5157 5154 5151 5151 5152 5154 5156 5158 5163 5170 5177 5186 5195 5204 5215 5225 5234 5244 5254 5263 5273 5282 5291 5300 5309 5321 5332 5343 5351 5359 5368 5379 5389 5400 5411 5422 5431 5440 5448 5456 5470 5477 5472 5471 5481 5491 5500 5507 5512 5517 5524 5531
5259 5249 5240 5232 5224 5216 5208 5201 5196 5191 5186 5183 5179 5176 5173 5170 5168 5165 5162 5159 5155 5153 5152 5150 5147 5146 5146 5148 5150 5153 5156 5161 5168 5177 5185 5195 5205 5216 5226 5236 5246 5256 5264 5274 5283 5292 5301 5312 5323 5334 5342 5349 5358 5370 5380 5390 5401 5412 5422 5431 5438 5447 5459 5464 5461 5463 5472 5481 5491 5498 5504 5511 5517 5524
5257 5247 5238 5230 5222 5214 5207 5200 5195 5189 5185 5182 5178 5175 5173 5170 5167 5164 5160 5156 5152 5148 5146 5145 5143 5142 5142 5143 5145 5147 5150 5155 5161 5168 5176 5185 5195 5206 5217 5227 5238 5247 5256 5265 5274 5284 5293 5303 5313 5324 5333 5340 5348 5360 5370 5380 5392 5403 5412 5421 5429 5438 5445 5449 5451 5456 5464 5474 5484 5490 5496 5502 5509 5516
5255 5246 5236 5228 5220 5212 5205 5199 5193 5188 5184 5181 5178 5175 5172 5169 5165 5160 5156 5152 5148 5145 5142 5140 5139 5137 5137 5138 5139 5141 5144 5149 5154 5159 5166 5175 5185 5196 5207 5218 5229 5239 5248 5258 5266 5275 5285 5294 5304 5314 5323 5331 5339 5349 5360 5371 5383 5394 5403 5411 5420 5427 5431 5435 5441 5448 5455 5466 5477 5484 5488 5493 5499 5507
5253 5244 5235 5226 5218 5211 5204 5198 5192 5187 5183 5180 5178 5175 5171 5167 5162 5157 5153 5149 5145 5142 5140 5137 5136 5134 5133 5133 5134 5136 5138 5142 5147 5150 5157 5166 5175 5185 5197 5210 5221 5231 5241 5250 5259 5268 5277 5286 5295 5305 5314 5323 5332 5340 5350 5361 5372 5384 5393 5401 5409 5416 5421 5425 5431 5438 5446 5456 5468 5477 5481 5484 5491 5500
5252 5243 5234 5225 5216 5209 5202 5196 5190 5185 5181 5178 5176 5173 5170 5165 5160 5155 5151 5148 5144 5142 5139 5137 5135 5133 5132 5131 5131 5131 5132 5135 5139 5143 5148 5157 5166 5175 5187 5200 5211 5222 5233 5242 5252 5260 5269 5278 5288 5297 5306 5317 5326 5333 5341 5351 5362 5373 5382 5391 5399 5406 5412 5418 5423 5429 5437 5446 5457 5466 5472 5476 5484 5493
5250 5241 5232 5223 5215 5207 5200 5194 5188 5183 5179 5176 5174 5171 5167 5162 5158 5155 5151 5147 5144 5142 5139 5137 5135 5132 5130 5129 5128 5127 5127 5129 5133 5136 5142 5149 5157 5165 5177 5191 5204 5215 5225 5235 5244 5253 5261 5270 5280 5289 5299 5309 5318 5325 5333 5342 5354 5364 5373 5381 5391 5398 5404 5410 5416 5422 5429 5438 5447 5455 5462 5467 5475 5485
5249 5240 5231 5222 5213 5206 5199 5193 5187 5181 5178 5175 5173 5169 5165 5160 5157 5154 5150 5147 5145 5142 5139 5136 5134 5132 5129 5126 5125 5124 5124 5125 5128 5131 5135 5142 5149 5157 5169 5183 5196 5207 5217 5226 5236 5244 5252 5261 5271 5281 5291 5301 5309 5317 5326 5336 5345 5355 5363 5371 5380 5389 5395 5401 5408 5416 5422 5429 5437 5445 5452 5457 5466 5476
5248 5239 5230 5221 5212 5205 5199 5192 5186 5181 5177 5175 5172 5169 5165 5161 5158 5154 5151 5148 5146 5143 5140 5137 5134 5132 5129 5126 5124 5123 5122 5123 5124 5126 5130 5135 5141 5149 5161 5175 5189 5199 5207 5216 5226 5234 5243 5253 5263 5274 5284 5292 5300 5309 5319 5328 5335 5343 5351 5359 5368 5377 5384 5390 5399 5408 5415 5421 5429 5436 5443 5449 5458 5467
5248 5239 5230 5221 5212 5204 5199 5192 5186 5181 5177 5175 5172 5169 5165 5162 5159 5156 5152 5149 5147 5145 5143 5140 5136 5133 5130 5127 5125 5123 5122 5122 5122 5123 5125 5129 5135 5144 5154 5168 5180 5188 5196 5208 5219 5228 5237 5246 5256 5266 5276 5284 5292 5302 5311 5319 5326 5332 5340 5348 5357 5365 5373 5380 5391 5401 5408 5413 5420 5427 5434 5442 5450 5460
5247 5239 5230 5221 5212 5204 5198 5192 5186 5181 5178 5175 5173 5169 5166 5163 5160 5157 5154 5151 5148 5147 5145 5142 5138 5135 5132 5129 5127 5125 5123 5122 5120 5121 5122 5125 5131 5139 5148 5160 5171 5179 5190 5204 5214 5223 5232 5241 5250 5261 5269 5277 5286 5295 5303 5311 5319 5325 5331 5338 5347 5356 5363 5371 5382 5393 5400 5406 5413 5419 5427 5434 5443 5452
5246 5238 5229 5221 5212 5204 5197 5192 5186 5181 5178 5175 5173 5170 5166 5164 5161 5159 5156 5153 5150 5149 5146 5143 5140 5137 5134 5131 5129 5126 5124 5122 5120 5119 5120 5122 5127 5133 5142 5154 5164 5175 5188 5200 5209 5220 5231 5239 5248 5258 5266 5273 5281 5289 5296 5303 5312 5319 5324 5330 5337 5345 5353 5363 5374 5383 5391 5399 5406 5412 5420 5428 5435 5444
5245 5237 5229 5221 5212 5204 5197 5192 5187 5182 5178 5176 5173 5170 5167 5164 5162 5160 5157 5155 5152 5151 5148 5145 5142 5139 5137 5134 5131 5128 5125 5123 5120 5119 5118 5120 5124 5131 5140 5150 5160 5172 5185 5196 5207 5219 5227 5235 5245 5255 5263 5270 5277 5284 5291 5298 5304 5311 5317 5322 5329 5335 5343 5352 5364 5375 5382 5391 5400 5407 5413 5421 5429 5436
5244 5237 5229 5221 5213 5205 5198 5192 5186 5182 5178 5175 5173 5170 5167 5165 5163 5161 5158 5156 5153 5152 5150 5147 5144 5142 5139 5136 5133 5130 5127 5124 5122 5120 5118 5119 5123 5130 5137 5147 5158 5169 5181 5192 5204 5214 5222 5230 5241 5250 5257 5265 5272 5279 5286 5293 5298 5303 5309 5315 5321 5328 5335 5342 5353 5364 5374 5383 5391 5399 5408 5417 5424 5430
5243 5236 5228 5222 5215 5207 5199 5193 5187 5182 5178 5175 5173 5170 5167 5165 5164 5162 5160 5157 5155 5153 5151 5148 5146 5144 5142 5138 5135 5132 5130 5127 5124 5121 5120 5121 5124 5129 5136 5145 5155 5164 5175 5187 5198 5208 5217 5227 5236 5243 5251 5259 5267 5275 5282 5287 5292 5296 5303 5309 5316 5322 5329 5335 5343 5353 5364 5374 5382 5390 5401 5411 5418 5422
5241 5234 5228 5221 5215 5208 5200 5194 5188 5183 5178 5175 5173 5171 5168 5166 5165 5163 5161 5159 5157 5155 5152 5150 5148 5146 5143 5140 5137 5135 5132 5130 5127 5124 5123 5124 5127 5131 5137 5145 5152 5162 5173 5184 5195 5205 5214 5224 5231 5239 5247 5256 5264 5272 5277 5281 5287 5292 5298 5305 5311 5318 5324 5331 5337 5345 5354 5364 5373 5382 5392 5402 5410 5415
5240 5233 5226 5221 5215 5208 5201 5195 5189 5183 5178 5175 5173 5171 5169 5167 5166 5164 5162 5161 5159 5156 5154 5151 5149 5147 5145 5143 5140 5138 5136 5133 5130 5128 5128 5129 5131 5135 5141 5147 5155 5165 5175 5184 5194 5204 5213 5221 5229 5236 5244 5252 5260 5267 5273 5278 5283 5289 5294 5300 5307 5313 5319 5324 5331 5338 5345 5354 5363 5373 5382 5392 5400 5408
5240 5232 5226 5220 5214 5208 5201 5194 5188 5183 5178 5175 5173 5171 5169 5168 5166 5165 5163 5162 5160 5158 5155 5153 5151 5149 5147 5145 5143 5142 5140 5138 5135 5134 5134 5135 5137 5141 5146 5152 5160 5169 5178 5186 5195 5203 5211 5219 5226 5233 5240 5248 5255 5262 5268 5274 5279 5285 5290 5295 5301 5307 5312 5318 5324 5331 5337 5345 5353 5363 5372 5382 5391 5401
5239 5233 5226 5219 5214 5207 5200 5193 5187 5183 5178 5174 5172 5171 5169 5168 5167 5166 5164 5162 5161 5159 5157 5155 5153 5151 5150 5148 5147 5146 5145 5143 5141 5140 5140 5141 5144 5147 5152 5158 5165 5172 5180 5188 5196 5203 5210 5217 5223 5230 5237 5244 5251 5258 5264 5270 5275 5281 5285 5290 5296 5300 5306 5312 5318 5323 5329 5336 5344 5353 5363 5372 5381 5391
5239 5233 5226 5220 5214 5206 5199 5192 5187 5182 5178 5175 5172 5170 5169 5168 5167 5166 5165 5163 5162 5161 5159 5157 5155 5154 5152 5151 5150 5150 5149 5148 5147 5146 5146 5147 5150 5153 5158 5163 5169 5174 5180 5188 5195 5201 5208 5213 5219 5226 5233 5240 5248 5255 5261 5266 5272 5277 5281 5286 5291 5295 5299 5305 5311 5317 5322 5329 5336 5344 5352 5360 5369 5379
5239 5233 5227 5220 5214 5206 5198 5192 5188 5184 5179 5175 5172 5170 5169 5168 5167 5166 5166 5164 5163 5162 5161 5159 5158 5157 5156 5155 5154 5153 5153 5153 5152 5151 5152 5153 5155 5158 5162 5166 5171 5175 5180 5186 5192 5198 5205 5211 5217 5224 5231 5238 5245 5252 5257 5262 5268 5272 5277 5281 5285 5289 5294 5299 5304 5311 5316 5322 5328 5334 5341 5350 5360 5369
5239 5234 5227 5221 5214 5207 5201 5195 5190 5185 5181 5176 5173 5170 5168 5167 5167 5167 5166 5165 5164 5163 5162 5161 5160 5159 5158 5157 5157 5157 5156 5156 5156 5156 5157 5158 5159 5162 5165 5169 5173 5177 5182 5187 5192 5198 5204 5210 5216 5222 5228 5235 5242 5248 5253 5259 5264 5268 5272 5276 5280 5284 5288 5292 5298 5304 5309 5315 5320 5326 5334 5343 5352 5360
5239 5234 5228 5222 5215 5209 5203 5198 5192 5186 5182 5177 5173 5170 5168 5167 5167 5167 5166 5166 5165 5164 5164 5163 5162 5161 5161 5160 5159 5159 5159 5160 5160 5161 5161 5162 5163 5165 5168 5171 5175 5179 5183 5188 5193 5198 5203 5208 5214 5220 5226 5233 5239 5245 5250 5255 5259 5263 5267 5271 5275 5278 5281 5286 5291 5297 5303 5309 5314 5320 5327 5334 5341 5349
5239 5234 5228 5223 5217 5212 5207 5202 5196 5189 5184 5179 5174 5171 5168 5167 5166 5166 5166 5166 5166 5165 5165 5164 5163 5163 5162 5162 5162 5162 5162 5162 5163 5164 5165 5165 5167 5168 5170 5173 5177 5181 5185 5189 5193 5198 5202 5207 5212 5218 5224 5230 5236 5242 5247 5251 5255 5259 5263 5266 5269 5273 5277 5282 5286 5292 5298 5303 5308 5314 5320 5326 5332 5339
5239 5234 5228 5224 5220 5215 5210 5204 5198 5192 5186 5180 5176 5172 5169 5167 5166 5166 5166 5166 5166 5166 5166 5165 5165 5164 5164 5164 5164 5164 5164 5164 5165 5166 5167 5168 5170 5171 5173 5175 5178 5182 5186 5190 5194 5198 5202 5207 5212 5217 5222 5228 5233 5238 5242 5246 5250 5254 5258 5261 5265 5268 5272 5277 5282 5287 5292 5297 5301 5307 5313 5319 5325 5332
5238 5233 5229 5224 5221 5216 5210 5204 5198 5193 5187 5182 5177 5173 5170 5167 5166 5165 5165 5166 5166 5166 5166 5166 5166 5166 5166 5166 5166 5166 5166 5167 5167 5168 5169 5170 5172 5173 5175 5177 5179 5183 5186 5190 5194 5197 5201 5206 5211 5216 5220 5225 5230 5234 5238 5242 5247 5251 5254 5257 5261 5264 5268 5272 5277 5282 5286 5291 5296 5301 5307 5313 5319 5326
5237 5233 5228 5224 5220 5215 5209 5203 5198 5192 5187 5182 5178 5175 5171 5168 5166 5165 5165 5165 5166 5166 5166 5166 5167 5167 5167 5167 5167 5168 5168 5168 5169 5170 5171 5172 5173 5175 5177 5178 5180 5183 5186 5190 5193 5197 5201 5205 5209 5214 5218 5223 5227 5231 5235 5239 5244 5247 5251 5254 5257 5261 5265 5269 5273 5278 5282 5287 5291 5296 5301 5307 5313 5319
5236 5232 5228 5223 5219 5214 5209 5203 5198 5193 5188 5183 5179 5176 5172 5170 5167 5165 5164 5164 5165 5166 5166 5166 5166 5167 5167 5168 5168 5169 5169 5170 5170 5171 5172 5173 5175 5176 5178 5179 5181 5183 5186 5189 5192 5196 5200 5204 5208 5212 5216 5220 5224 5228 5232 5236 5240 5243 5246 5249 5253 5257 5261 5266 5270 5275 5279 5282 5286 5291 5296 5301 5307 5313
5235 5231 5227 5223 5218 5214 5209 5204 5199 5194 5190 5185 5181 5177 5174 5171 5168 5166 5165 5164 5164 5165 5165 5166 5166 5166 5167 5168 5169 5169 5170 5171 5171 5172 5173 5174 5175 5177 5178 5180 5182 5184 5186 5188 5192 5195 5199 5202 5206 5210 5213 5217 5221 5225 5229 5232 5236 5239 5242 5245 5248 5252 5257 5261 5266 5270 5274 5278 5283 5288 5293 5298 5303 5308
5235 5231 5227 5223 5219 5214 5209 5205 5200 5196 5192 5187 5183 5178 5175 5172 5169 5167 5165 5164 5163 5163 5164 5165 5165 5166 5166 5168 5168 5169 5170 5171 5172 5172 5173 5174 5176 5177 5179 5180 5182 5184 5186 5188 5191 5194 5197 5201 5204 5208 5211 5215 5219 5222 5226 5229 5232 5235 5238 5241 5245 5248 5252 5257 5261 5266 5270 5275 5279 5284 5289 5293 5298 5303
5234 5230 5227 5223 5219 5214 5210 5206 5202 5197 5193 5189 5185 5180 5177 5173 5170 5168 5166 5164 5163 5162 5163 5163 5164 5165 5166 5167 5168 5169 5170 5171 5172 5173 5174 5175 5176 5177 5179 5180 5182 5184 5186 5188 5190 5193 5196 5199 5203 5206 5209 5213 5216 5219 5223 5226 5229 5232 5235 5238 5241 5245 5249 5253 5257 5261 5266 5270 5275 5280 5284 5288 5292 5296
5232 5229 5226 5222 5218 5214 5211 5207 5202 5198 5194 5190 5186 5182 5178 5175 5171 5169 5167 5165 5163 5162 5162 5162 5163 5164 5165 5166 5167 5168 5169 5170 5171 5172 5173 5174 5176 5177 5179 5180 5182 5184 5185 5187 5190 5192 5195 5198 5201 5204 5207 5210 5213 5216 5220 5223 5225 5228 5231 5235 5238 5241 5245 5249 5253 5257 5261 5265 5270 5273 5277 5281 5286 5289
5231 5228 5225 5222 5218 5214 5210 5207 5203 5199 5195 5192 5188 5184 5180 5176 5173 5170 5167 5165 5164 5162 5161 5161 5161 5162 5164 5165 5166 5167 5169 5170 5170 5172 5173 5174 5175 5177 5178 5180 5182 5183 5185 5187 5189 5191 5194 5196 5199 5202 5205 5208 5211 5214 5217 5219 5222 5226 5229 5232 5235 5238 5241 5245 5249 5253 5257 5261 5264 5267 5271 5275 5279 5283
5230 5227 5224 5221 5217 5214 5210 5207 5203 5200 5196 5193 5189 5186 5182 5178 5175 5171 5169 5166 5164 5163 5162 5161 5160 5161 5162 5163 5165 5166 5168 5169 5170 5171 5172 5173 5175 5176 5177 5179 5181 5182 5184 5186 5188 5190 5193 5195 5198 5200 5203 5206 5209 5211 5214 5217 5220 5223 5226 5228 5231 5234 5238 5241 5245 5249 5252 5256 5259 5262 5265 5269 5273 5277
5228 5226 5223 5220 5217 5213 5210 5207 5204 5200 5197 5194 5191 5187 5184 5180 5177 5174 5170 5168 5165 5163 5162 5161 5160 5160 5161 5162 5163 5165 5166 5168 5169 5170 5171 5172 5174 5175 5176 5178 5179 5181 5183 5185 5187 5189 5191 5193 5196 5198 5201 5204 5206 5209 5212 5214 5217 5220 5223 5225 5228 5231 5234 5237 5241 5244 5248 5251 5254 5257 5261 5264 5268 5273
5227 5224 5222 5219 5216 5213 5210 5207 5204 5200 5197 5194 5191 5188 5185 5182 5179 5175 5172 5169 5167 5164 5163 5161 5160 5160 5160 5160 5162 5163 5165 5166 5168 5169 5170 5171 5173 5174 5175 5176 5178 5179 5181 5183 5185 5187 5189 5192 5194 5196 5199 5201 5204 5206 5209 5212 5214 5217 5219 5222 5224 5227 5230 5233 5237 5240 5243 5247 5250 5254 5258 5261 5266 5270
5226 5224 5221 5218 5215 5212 5210 5207 5204 5201 5198 5195 5192 5189 5186 5183 5180 5177 5174 5171 5168 5165 5163 5162 5161 5160 5159 5159 5160 5161 5163 5164 5166 5167 5169 5170 5171 5172 5174 5175 5176 5178 5179 5181 5183 5185 5187 5189 5192 5194 5196 5199 5201 5203 5206 5209 5211 5214 5216 5218 5221 5224 5226 5229 5233 5236 5240 5243 5247 5250 5254 5258 5262 5266
5225 5222 5220 5218 5215 5212 5209 5206 5203 5201 5198 5195 5192 5189 5187 5184 5181 5178 5176 5173 5170 5167 5164 5162 5161 5160 5159 5159 5159 5159 5160 5162 5164 5165 5167 5168 5169 5171 5172 5173 5174 5176 5177 5179 5181 5183 5185 5187 5189 5191 5193 5196 5198 5201 5203 5205 5208 5210 5213 5215 5218 5220 5223 5226 5229 5232 5236 5239 5242 5246 5250 5254 5257 5261
Wind_Speed
79 78 76 74 70 67 64 60 58 57 54 48 41 36 32 28 24 23 24 30 38 43 46 52 59 64 68 76 84 88 88 90 91 91 90 90 89 90 92 96 102 109 116 120 122 122 122 125 123 110 104 105 105 110 114 112 110 106 98 90 78 70 72 76 74 67 66 74 82 84 82 79 83 90
78 77 76 73 69 67 64 60 58 56 52 45 39 34 30 27 23 21 21 28 34 37 40 46 53 61 65 71 80 87 89 90 92 92 92 91 90 90 92 94 97 104 112 117 121 123 122 126 126 115 106 107 105 108 112 110 110 113 108 99 88 79 76 78 78 72 67 70 78 85 87 84 84 88
78 77 75 72 69 66 63 59 56 54 49 42 37 33 29 25 23 20 18 24 29 31 35 41 48 56 63 68 75 83 89 91 92 93 93 93 92 91 91 93 95 99 107 114 119 123 123 125 129 121 109 107 106 107 110 107 106 113 115 108 98 89 84 82 81 77 73 72 75 84 91 91 91 93
78 77 74 71 68 65 61 58 55 52 46 40 35 31 28 26 24 21 17 19 24 26 31 37 43 51 59 65 70 78 86 91 92 93 94 94 93 93 91 91 94 96 102 110 116 121 124 125 130 127 113 108 108 108 109 108 106 110 116 115 108 98 89 87 87 81 74 70 71 77 85 92 96 96
77 76 74 70 67 64 60 56 53 49 43 37 33 29 28 27 26 25 21 18 20 23 27 33 38 45 53 61 67 73 81 89 92 93 94 94 94 94 93 91 93 95 98 105 112 119 124 126 131 132 120 110 110 110 109 109 107 108 113 116 115 108 93 85 89 85 73 68 70 70 73 83 93 95
76 75 73 70 66 62 59 55 51 46 40 34 31 28 27 27 26 26 25 21 19 20 24 29 34 40 47 55 63 69 75 83 90 92 93 94 94 94 94 93 93 95 97 101 107 115 122 126 131 135 129 116 110 109 108 108 107 108 112 114 116 116 103 85 83 82 72 69 70 68 67 73 85 91
75 74 72 69 65 61 58 54 49 44 37 32 29 27 26 27 28 28 28 26 21 19 20 26 31 37 42 49 57 65 71 76 85 91 92 94 95 94 93 93 93 94 96 99 103 110 119 125 130 136 137 128 116 109 106 107 107 107 111 114 113 116 109 87 74 73 71 69 71 71 71 74 81 87
74 74 72 68 64 61 56 52 47 41 35 30 27 27 28 29 30 31 32 31 28 24 20 23 28 34 38 44 50 59 66 72 78 86 91 93 94 94 93 93 92 94 96 98 101 106 114 122 129 135 140 139 129 115 107 106 108 108 110 113 111 113 109 86 68 68 71 70 71 74 76 78 81 84
74 73 72 68 63 60 55 50 46 40 32 29 28 27 28 30 30 31 32 32 31 30 26 24 27 31 35 39 45 52 61 68 73 80 87 91 93 94 94 93 91 92 94 97 100 104 109 117 126 133 140 143 138 126 112 107 108 111 112 112 110 110 104 84 68 68 71 71 73 76 78 80 81 81
73 73 72 68 63 60 55 50 45 39 31 27 26 26 28 30 31 31 33 34 34 33 30 26 26 27 30 35 40 47 54 62 68 74 81 88 92 93 94 93 92 91 91 94 97 101 106 112 120 129 137 142 142 134 123 112 109 111 112 111 110 107 97 82 71 71 71 69 72 77 78 81 84 82
72 72 71 68 64 60 54 49 45 38 29 24 23 25 27 30 33 34 36 38 36 33 28 25 23 23 24 29 35 41 48 55 63 70 76 83 89 92 93 93 92 90 90 91 94 98 103 108 114 123 133 139 142 140 133 122 113 111 111 109 108 103 93 82 77 77 73 66 67 74 77 81 88 88
71 71 71 68 64 60 55 49 45 38 28 22 22 24 28 31 34 36 38 38 32 25 22 21 20 19 19 22 28 35 42 48 57 65 71 77 85 90 93 93 92 91 89 89 90 93 98 105 110 117 126 135 140 142 141 133 122 114 111 108 103 98 90 82 78 79 78 70 68 72 74 80 90 93
70 70 70 68 64 60 55 49 46 38 27 22 22 24 28 31 34 37 37 31 23 20 22 22 22 20 19 18 21 28 36 42 50 59 67 72 79 87 91 92 92 91 89 88 88 89 92 98 105 111 118 127 137 142 143 140 133 124 117 111 102 95 90 85 78 77 80 78 75 75 73 77 87 94
69 69 69 68 64 60 55 50 45 38 27 21 22 26 29 32 36 36 30 21 20 24 26 27 27 27 25 21 18 22 29 36 43 51 61 67 74 82 88 91 91 91 90 88 86 86 88 92 98 105 112 119 129 138 142 142 139 134 128 122 111 100 93 89 82 78 80 82 82 81 76 77 86 95
68 68 69 68 64 60 55 50 45 37 26 20 22 27 29 34 36 29 21 20 23 28 29 30 32 32 31 26 20 18 22 29 35 43 52 61 68 76 83 88 89 90 90 88 87 86 86 87 91 97 104 111 119 128 137 140 141 139 137 134 127 114 103 96 90 85 84 85 86 85 80 79 87 97
66 67 68 67 64 60 55 49 44 36 25 19 22 26 29 33 30 22 21 22 25 28 28 29 33 33 29 24 19 16 17 20 28 36 44 53 63 70 77 84 87 88 90 89 87 86 86 85 86 89 96 103 110 118 127 135 139 140 139 139 138 132 121 111 100 92 89 89 88 86 83 83 88 96
65 66 66 66 64 61 55 48 43 34 23 18 21 25 28 28 21 18 22 24 26 27 24 25 30 29 22 19 19 18 16 15 21 30 38 46 56 63 70 78 83 87 89 89 87 86 85 84 83 84 88 94 102 109 117 126 134 138 138 136 137 138 137 131 117 100 91 90 90 86 82 84 90 94
64 64 65 65 63 60 55 48 42 34 22 17 19 23 26 23 15 16 23 25 27 28 23 22 26 23 17 18 20 21 19 18 18 24 33 40 48 57 64 72 80 84 87 87 86 85 83 83 82 81 82 86 93 99 107 115 125 133 135 133 132 134 137 139 132 116 100 92 90 88 82 81 88 92
64 63 64 65 63 59 55 48 41 33 21 15 17 20 24 19 12 15 22 23 27 28 22 22 24 20 19 21 21 19 19 17 16 17 27 34 41 51 59 66 75 80 82 84 85 83 81 81 80 79 78 79 84 90 96 104 113 123 130 130 129 130 131 132 135 132 121 106 94 90 86 83 87 91
63 62 62 64 63 59 54 48 41 33 22 15 15 18 22 19 12 14 20 23 26 24 18 20 22 17 18 21 15 14 17 17 15 13 20 29 36 45 54 62 69 74 77 79 82 81 79 78 77 76 75 75 77 81 87 92 99 109 121 126 126 126 127 126 127 133 137 128 111 98 89 84 88 93
62 61 61 62 62 58 53 47 41 34 23 15 14 16 20 18 13 14 18 22 24 20 14 18 19 14 16 17 13 12 16 18 18 14 13 23 32 40 49 59 65 70 73 75 77 78 78 76 75 74 74 73 73 75 78 82 88 95 106 117 122 123 123 123 122 125 132 135 130 121 107 91 89 95
61 60 60 61 61 58 53 47 41 35 25 16 12 14 17 16 13 13 15 19 22 19 14 15 15 13 14 16 14 14 15 17 17 14 9 16 28 37 46 56 64 68 71 71 72 75 76 75 73 72 72 71 70 70 71 74 78 85 93 103 112 117 119 119 120 120 124 128 132 134 126 107 94 96
59 59 59 60 60 59 54 47 41 36 27 17 11 11 13 13 11 12 13 17 21 19 14 12 13 14 15 15 17 17 16 16 16 13 5 10 23 34 43 53 62 66 68 68 68 69 71 73 72 71 70 69 67 66 67 68 71 75 81 89 98 106 111 113 114 115 118 122 125 128 128 118 105 99
58 58 58 59 59 59 55 48 42 36 29 20 12 9 10 10 8 10 11 14 18 17 12 10 13 15 14 15 19 21 18 17 16 11 2 8 18 30 40 49 57 62 64 65 64 64 65 68 70 69 67 66 65 64 63 64 65 66 71 77 84 92 99 104 108 109 112 116 119 121 122 120 114 106
56 57 57 58 58 59 57 51 44 37 30 23 15 9 8 8 6 7 9 11 15 17 13 8 10 14 13 14 19 23 20 17 14 10 4 9 17 27 37 45 51 56 59 60 60 60 60 62 65 67 66 64 63 62 61 60 60 60 63 67 73 79 87 94 100 103 106 109 113 117 119 120 119 113
55 55 55 57 57 58 58 54 47 39 32 26 18 10 6 7 4 5 7 9 12 16 13 7 9 13 13 14 17 21 20 16 12 10 7 11 18 25 34 42 47 51 53 56 57 57 56 58 61 64 65 64 62 60 59 58 57 57 58 61 65 69 75 83 91 97 101 104 107 112 116 117 118 117
53 53 53 55 56 57 59 55 48 41 34 28 22 13 6 5 4 4 4 8 10 12 12 9 9 12 12 13 14 16 18 16 11 9 8 11 17 23 30 37 43 48 51 52 54 55 55 56 59 61 63 63 61 59 57 55 54 54 54 57 61 64 68 74 81 89 95 99 101 105 111 114 116 118
51 52 51 52 54 56 58 55 48 43 36 29 25 17 8 6 5 4 5 4 8 8 9 10 9 9 10 12 11 12 14 14 10 7 7 10 16 22 27 33 39 45 50 51 52 54 55 55 57 59 60 61 59 57 56 54 53 52 53 54 57 61 65 69 73 80 87 91 94 98 104 110 113 117
50 50 49 50 52 53 55 55 49 43 38 31 26 21 12 7 6 5 7 4 2 4 5 7 7 5 8 10 9 8 11 13 10 6 6 9 14 19 24 29 35 40 45 50 51 53 54 54 54 56 58 59 58 56 55 54 53 52 52 53 55 58 62 66 69 73 78 83 86 90 95 102 107 111
48 48 47 48 50 51 52 53 50 43 39 34 28 23 16 9 8 7 7 8 4 4 4 3 3 3 5 7 6 5 7 9 9 6 6 8 12 18 22 27 32 36 40 44 47 50 52 52 54 56 57 57 57 56 54 54 53 52 52 52 54 56 61 65 67 70 73 77 80 82 84 90 96 101
46 47 46 45 47 48 48 49 49 44 39 35 29 24 20 12 8 9 9 9 9 8 5 2 1 1 3 4 3 3 4 5 6 5 6 8 10 14 21 26 31 34 36 40 44 47 49 51 53 55 56 56 56 56 55 54 53 52 51 51 52 55 59 63 65 67 69 74 77 77 77 81 86 91
45 45 45 44 44 45 45 46 48 46 40 36 31 25 21 15 9 9 10 10 11 12 8 4 4 4 1 2 3 4 2 1 3 4 6 9 10 11 16 24 30 32 34 37 40 43 46 49 51 53 54 56 55 55 54 54 53 52 50 50 51 52 56 61 64 64 67 71 74 75 75 76 79 82
44 44 44 43 42 43 44 45 47 47 43 38 33 27 22 18 12 9 10 11 12 14 12 8 5 6 5 3 5 5 4 3 4 4 5 8 10 11 13 19 27 32 33 35 37 40 43 45 48 50 52 53 54 54 53 52 51 50 49 49 49 50 52 58 62 63 65 69 72 74 74 74 75 77
42 43 42 43 42 42 43 44 46 48 46 41 35 30 25 19 15 10 9 12 13 15 15 12 8 8 8 7 7 7 6 7 8 8 8 9 10 11 12 16 22 28 32 34 36 37 39 41 44 47 49 50 51 51 51 50 49 48 47 46 47 48 50 54 58 61 63 66 69 71 74 75 74 74
40 42 41 42 42 42 42 43 44 46 46 44 38 33 28 22 17 13 9 10 14 16 17 16 14 11 10 10 10 10 9 9 10 12 12 13 12 12 12 14 18 23 29 32 34 35 36 38 40 43 45 47 48 48 48 47 46 45 44 44 44 46 48 51 54 57 60 63 65 67 70 74 75 74
39 40 40 40 42 41 41 42 43 43 44 44 41 36 31 26 20 15 11 8 11 17 19 19 18 16 13 12 12 12 11 11 12 13 15 16 16 15 14 14 16 20 24 29 32 32 34 36 38 40 42 44 45 45 44 44 43 42 42 42 42 44 46 48 50 52 55 59 61 61 63 67 72 74
37 38 39 39 40 40 40 40 41 41 42 43 42 38 33 29 24 18 13 10 8 13 19 21 21 20 18 15 14 14 14 13 14 15 17 18 18 17 17 17 17 18 22 27 30 30 31 33 35 37 38 40 41 41 41 41 40 40 40 41 40 42 45 48 49 49 51 54 57 59 59 62 67 72
35 37 37 37 38 39 38 38 38 39 40 40 41 40 36 31 27 23 17 12 9 9 14 20 23 23 22 20 18 17 17 17 16 17 19 20 20 19 19 19 19 19 21 26 30 29 28 30 32 34 35 37 38 38 38 38 38 38 39 40 39 39 43 47 49 49 48 48 51 55 58 61 65 70
33 35 36 36 36 37 37 36 36 37 38 39 39 40 38 34 30 26 22 16 12 9 9 15 23 26 25 23 22 20 19 19 18 19 20 22 22 21 21 20 20 20 21 24 28 30 29 28 30 31 33 34 35 36 36 37 37 38 39 40 41 39 40 44 48 50 48 45 46 49 52 56 60 65
32 34 35 35 35 36 36 35 35 35 36 37 37 38 38 37 33 29 25 21 16 11 9 9 16 25 29 28 26 24 22 21 21 21 23 24 24 24 23 23 22 23 23 23 26 29 29 29 29 29 30 31 32 33 34 35 37 38 39 40 41 41 41 43 46 48 48 46 46 47 48 50 53 57
30 33 34 34 34 35 35 34 34 34 34 35 36 36 36 37 35 31 27 24 20 15 11 9 9 18 28 31 30 27 25 24 24 24 25 26 26 25 25 25 25 25 25 25 26 28 29 30 29 30 30 29 29 30 31 32 35 37 38 39 40 41 42 43 45 47 47 46 46 47 48 49 52 55
29 31 33 33 33 33 34 34 33 33 33 33 34 34 34 34 35 33 30 26 22 19 15 12 9 10 20 29 33 32 29 27 27 27 27 28 28 28 27 27 27 27 27 27 28 28 29 30 31 31 31 31 30 30 31 31 32 34 35 37 38 39 41 43 45 46 47 47 47 47 49 52 54 58
27 30 32 32 32 32 32 32 32 32 31 31 32 32 33 33 33 33 32 29 25 22 18 15 11 8 10 21 30 35 34 32 31 31 30 30 30 30 30 30 30 29 29 29 29 30 30 31 32 33 33 33 33 33 32 32 32 33 33 34 35 37 39 41 44 46 47 47 48 48 50 52 54 56
26 28 30 31 31 31 31 31 31 31 30 30 30 31 31 31 31 31 31 31 28 25 22 18 14 11 8 11 20 30 36 37 35 35 34 33 33 33 33 32 32 32 31 31 31 32 32 32 33 34 35 35 35 35 34 34 34 34 34 34 34 35 36 39 43 46 47 47 48 49 48 50 51 52
25 26 28 30 30 30 30 30 30 30 29 29 29 30 29 30 30 30 30 30 29 27 25 21 17 14 11 8 10 19 28 35 38 39 38 37 36 36 36 35 35 35 34 33 33 33 34 34 35 35 36 36 37 36 36 36 36 36 36 35 35 35 35 36 39 43 46 48 49 48 47 47 49 50
Wind_Direction
344 344 344 343 342 341 339 337 336 335 333 330 326 320 311 299 280 260 251 251 250 245 240 238 237 234 228 225 223 221 220 219 219 218 217 216 215 214 215 215 215 215 213 212 211 212 211 209 208 207 205 206 207 210 214 213 211 211 212 213 212 203 200 204 206 205 205 207 210 212 214 217 220 223
344 345 344 344 343 342 340 339 338 337 335 333 331 326 320 312 296 274 255 251 252 248 244 239 236 236 233 227 224 223 221 219 219 219 218 217 216 215 214 214 215 215 214 212 211 211 211 210 209 207 206 206 206 207 213 215 213 213 213 213 213 208 203 203 205 206 207 208 210 211 212 214 217 220
345 345 345 344 343 343 341 339 339 338 337 336 335 333 329 324 313 295 271 263 260 250 245 243 236 234 234 230 226 223 222 220 219 219 218 217 217 216 214 214 214 214 214 213 211 210 211 210 209 208 205 204 203 204 210 214 213 213 214 214 214 212 209 206 205 206 207 208 210 212 214 214 215 218
345 346 345 345 344 344 342 339 339 339 339 337 337 338 337 334 328 316 296 281 276 260 246 244 241 236 234 233 229 225 223 221 220 219 218 218 217 216 215 214 214 214 213 213 212 210 210 210 209 209 205 201 200 200 205 210 211 211 213 215 215 215 213 209 205 203 203 205 208 210 214 217 217 217
346 346 346 345 345 344 342 340 340 340 339 338 338 340 341 339 336 330 320 306 295 279 257 246 244 240 235 233 232 228 224 222 221 219 218 218 217 217 216 215 214 213 213 213 212 211 210 209 209 210 206 201 198 197 200 205 208 209 211 214 215 215 216 210 202 198 199 203 206 206 209 216 219 219
346 346 346 346 345 344 342 341 341 340 338 338 339 340 341 341 339 336 331 322 313 301 280 258 247 244 239 235 233 231 227 224 222 220 218 218 217 217 216 216 215 214 213 213 213 211 210 209 209 210 209 204 200 197 197 200 205 208 210 213 214 215 217 210 196 192 196 202 206 207 207 211 216 219
346 347 347 346 346 345 343 341 341 340 338 336 337 338 340 342 341 338 334 329 323 316 300 278 260 249 243 238 235 233 230 226 223 221 219 218 217 217 216 216 216 215 214 213 213 212 211 210 209 210 211 209 205 200 197 198 203 207 210 212 214 214 214 207 192 188 193 200 206 208 210 213 215 217
346 347 347 347 347 346 343 342 341 339 336 333 333 337 341 342 341 337 333 330 326 321 312 294 275 259 249 242 237 234 232 229 225 222 220 218 217 216 216 215 215 215 215 214 214 213 211 210 210 210 212 213 211 205 200 199 202 206 210 212 212 211 208 201 190 187 192 198 205 209 212 215 217 217
347 348 348 348 347 347 344 342 340 339 335 331 333 340 342 339 336 332 328 328 327 323 316 303 286 270 257 247 241 236 234 231 227 224 221 219 217 216 216 215 215 215 215 215 215 214 213 211 210 210 212 214 214 210 205 202 201 204 208 210 207 203 201 197 189 189 192 197 205 211 214 216 218 218
347 348 348 348 348 348 346 342 341 339 334 331 334 338 337 333 331 331 330 331 330 325 318 308 294 280 265 254 246 240 235 232 229 226 223 220 218 216 215 215 214 214 214 215 215 215 214 212 211 211 212 214 215 213 210 206 203 202 202 203 201 197 194 191 188 189 192 195 203 209 212 216 218 218
347 348 348 348 348 349 347 343 341 339 334 329 330 333 334 332 332 335 336 334 331 326 323 316 305 290 273 258 250 244 238 234 231 228 224 221 219 217 215 215 214 214 214 214 215 215 215 214 213 211 212 214 215 215 213 211 207 201 197 196 196 194 191 189 188 189 190 194 201 204 206 211 217 218
348 349 349 349 349 349 348 344 341 340 335 326 328 335 335 334 337 339 336 333 331 334 339 337 327 311 289 267 254 247 241 236 232 229 226 222 219 217 215 214 214 213 213 213 214 215 215 215 214 213 212 213 214 215 216 214 211 204 198 197 197 194 192 191 189 189 189 193 200 203 201 206 215 219
348 349 349 349 350 350 348 344 342 342 337 329 333 339 338 339 343 340 334 334 343 356 359 354 345 333 317 293 267 251 243 237 233 230 228 223 220 217 214 213 213 213 213 213 213 214 215 215 215 214 213 213 214 215 216 216 215 210 204 203 202 199 196 195 192 191 191 192 199 202 200 201 211 218
348 349 350 350 350 351 349 345 343 343 340 337 342 343 343 345 344 339 338 351 6 6 2 356 349 344 337 323 294 264 248 238 233 231 229 225 222 218 214 212 211 212 213 213 213 214 214 215 215 215 215 214 214 215 216 216 217 215 213 210 208 206 205 204 200 197 195 195 199 203 200 199 208 216
348 349 351 351 350 352 350 346 344 344 342 345 349 347 347 347 344 346 3 18 12 3 357 351 348 346 340 332 316 287 261 243 234 231 229 226 223 219 214 211 210 211 212 212 213 214 214 214 214 215 215 215 215 216 216 217 217 218 218 217 215 212 211 210 209 206 201 198 201 204 201 199 206 215
349 350 351 352 351 352 351 347 345 344 344 350 353 352 352 349 350 7 25 19 8 2 352 342 342 343 339 336 330 309 281 254 238 232 229 225 223 220 215 210 209 209 210 211 212 213 214 213 213 213 215 216 216 216 217 217 218 218 219 220 220 218 216 215 215 214 209 203 202 205 203 200 205 213
349 350 352 353 352 352 352 349 346 345 346 353 356 355 356 356 0 19 19 10 7 4 350 337 339 343 348 352 346 332 312 282 249 233 228 224 221 220 215 209 208 209 209 209 211 213 214 213 212 212 213 215 217 217 217 217 218 219 220 221 221 221 221 220 218 216 214 209 205 205 204 202 205 211
349 351 353 354 353 352 352 350 347 346 346 354 359 359 2 6 14 19 11 7 5 359 348 343 346 351 1 356 343 336 329 310 276 241 229 224 219 217 214 209 207 208 208 208 210 212 214 214 212 211 212 214 216 217 219 219 218 219 221 223 222 222 222 223 221 218 216 214 212 211 209 204 204 209
349 351 353 355 354 353 352 351 349 347 345 352 359 3 9 15 16 11 11 10 4 356 347 350 357 359 356 344 330 332 339 330 306 264 234 223 216 214 212 208 207 207 207 207 208 210 213 215 214 212 211 213 215 216 219 220 220 220 221 223 224 224 224 223 222 220 219 218 218 218 216 210 207 210
349 352 354 356 356 354 352 351 350 348 344 347 357 4 11 13 2 359 9 10 4 358 352 357 5 0 347 342 338 346 357 358 344 300 245 223 214 210 207 206 206 206 205 206 207 208 211 214 215 214 212 212 214 216 218 220 221 222 222 223 225 226 227 226 223 222 222 222 221 220 219 215 212 214
349 351 354 356 357 355 353 351 351 349 343 342 353 3 10 11 355 348 4 9 6 6 2 1 5 359 346 354 10 9 359 1 359 334 265 223 209 204 202 202 203 204 205 205 206 207 209 212 214 215 214 213 213 215 217 219 222 223 223 224 225 226 228 229 227 224 223 223 223 222 222 219 216 217
348 351 354 356 357 357 355 353 351 349 344 338 347 2 9 8 351 337 351 3 5 9 12 6 9 9 359 8 27 22 4 1 1 344 290 220 202 198 196 197 199 202 203 204 204 206 207 209 212 214 215 214 213 214 216 218 221 223 224 224 225 226 228 229 230 228 226 225 224 225 225 222 219 220
348 351 353 356 358 358 357 355 352 349 346 338 335 353 8 8 347 325 335 355 0 3 6 6 13 20 17 21 29 27 19 14 6 351 311 205 195 193 191 192 195 199 201 202 203 204 206 208 210 213 215 215 214 213 215 218 220 223 225 225 226 227 228 229 230 231 230 228 226 226 226 224 221 221
349 351 352 355 357 358 358 357 354 351 349 342 327 333 1 4 333 312 332 357 3 -0 354 348 2 18 26 29 30 25 20 20 18 12 22 179 185 186 187 189 192 196 199 201 202 203 205 207 209 211 214 215 215 214 215 217 220 222 224 226 227 227 228 229 230 231 231 231 229 228 227 225 222 221
349 350 352 354 356 358 359 359 357 353 351 347 332 317 348 358 312 292 331 356 2 1 352 332 348 8 16 23 29 27 21 22 30 38 86 159 171 178 182 185 188 192 196 199 200 202 204 205 207 209 211 213 214 214 214 216 218 221 223 225 226 227 228 229 230 231 231 232 231 230 229 226 224 222
350 350 352 354 355 358 360 360 359 356 352 349 341 317 320 350 315 273 322 348 357 4 2 343 345 2 3 3 16 25 26 28 39 56 97 151 165 173 180 183 186 189 193 196 199 200 202 204 206 207 210 212 213 214 214 215 217 220 222 223 225 226 227 227 229 230 231 232 232 232 231 230 227 225
351 350 352 354 355 358 1 0 359 357 353 350 346 329 296 319 322 256 282 338 355 7 14 15 10 8 1 351 357 14 26 33 44 63 97 145 164 170 178 184 187 188 190 193 196 199 200 203 204 205 207 210 211 213 214 215 217 219 221 223 224 225 226 226 227 228 230 232 232 232 232 232 230 229
351 351 353 354 355 359 1 0 358 357 355 351 348 339 305 280 299 252 236 318 360 6 14 25 29 21 5 352 347 3 25 37 47 67 100 142 166 173 178 184 188 190 190 191 194 197 200 202 203 204 206 208 210 212 213 215 216 218 220 222 223 223 224 224 225 226 228 230 232 232 232 232 232 231
352 351 353 355 356 359 2 1 358 357 356 354 350 345 327 276 269 261 231 227 354 348 352 18 34 36 16 358 345 358 28 42 51 76 113 141 167 177 181 185 189 191 192 193 194 197 199 201 202 203 205 206 208 210 213 214 216 219 221 222 223 223 223 223 222 223 224 227 230 231 231 232 233 232
351 352 354 356 357 359 1 1 360 358 357 356 352 348 340 300 261 259 238 217 224 270 303 356 22 45 30 8 349 357 30 46 52 75 116 139 165 178 183 186 188 189 192 194 196 197 199 201 202 202 203 205 206 209 212 214 217 219 221 223 224 224 223 222 221 221 221 223 226 228 229 230 232 232
351 351 355 357 357 358 360 2 2 0 359 359 355 350 346 326 275 257 247 225 223 242 260 273 218 151 41 25 22 31 40 50 55 77 116 131 152 172 181 186 187 188 190 194 197 199 200 201 202 202 203 204 205 208 211 214 217 219 222 224 226 226 224 221 220 220 220 220 223 224 225 226 229 231
350 351 355 357 356 357 359 2 4 4 3 2 360 355 349 340 307 264 248 232 224 230 235 226 196 187 163 73 99 105 97 83 76 90 121 135 143 158 176 184 187 189 191 193 196 199 201 202 203 203 204 204 205 208 211 214 217 219 222 224 226 226 224 222 220 220 220 220 221 221 221 221 224 228
350 351 355 356 355 356 359 1 4 6 6 5 4 1 354 347 332 290 251 234 225 222 222 222 206 192 188 161 134 140 159 168 157 147 144 150 155 158 167 178 184 189 192 194 197 200 202 203 204 205 205 205 206 209 212 214 217 220 222 224 225 224 223 222 221 220 221 221 222 222 221 220 220 221
350 351 354 355 354 356 360 2 4 7 8 7 6 5 0 353 344 322 271 240 225 216 215 218 216 204 196 185 164 159 166 170 169 170 170 166 167 168 167 170 178 186 192 196 198 201 202 204 204 205 206 207 209 211 213 215 218 221 223 224 223 221 220 221 221 221 221 222 222 223 224 223 221 219
350 351 353 355 354 356 360 2 4 7 8 8 8 6 5 0 351 339 308 258 232 217 211 211 214 215 209 197 183 171 166 167 167 168 169 170 174 179 177 174 178 185 191 195 197 199 201 203 205 206 207 208 210 212 214 217 219 221 223 223 221 218 217 219 221 221 221 222 222 222 224 225 225 223
350 351 353 355 355 356 359 1 4 6 8 9 9 7 6 5 359 350 335 295 249 226 216 211 213 218 219 210 196 184 175 169 166 165 165 167 173 183 187 183 183 186 190 192 193 195 198 201 204 206 208 209 212 213 215 218 220 222 223 222 219 216 214 215 217 218 220 221 221 221 222 223 225 226
349 351 353 355 355 357 358 0 3 6 7 9 10 9 7 6 4 359 348 328 286 242 226 218 214 216 220 218 208 196 188 179 171 169 169 167 170 179 186 186 185 185 187 187 187 189 194 198 200 203 207 209 212 215 217 218 220 222 221 219 216 215 214 214 214 215 217 218 219 219 219 219 220 222
349 350 353 355 356 357 358 359 1 4 7 9 10 11 10 8 6 4 359 346 324 279 240 225 218 216 218 220 215 205 197 190 181 175 174 173 173 177 181 185 187 186 185 187 186 187 192 197 198 200 204 208 212 215 217 219 219 219 217 214 213 214 216 217 216 216 216 218 218 217 217 217 216 218
348 350 352 355 356 357 358 359 -0 3 6 8 9 11 11 10 8 6 5 359 345 322 276 237 222 216 216 218 217 212 205 198 190 184 180 178 179 180 182 184 187 187 187 189 190 189 191 195 198 199 203 208 212 214 217 218 217 215 214 213 213 213 215 218 219 220 221 222 220 218 217 217 217 217
347 349 351 354 356 357 358 359 360 1 4 6 8 10 11 12 11 8 6 4 358 345 321 273 233 220 217 216 216 214 211 206 198 192 189 186 184 185 185 186 188 190 190 192 194 193 193 195 198 199 202 207 210 212 214 215 214 212 213 214 216 216 216 217 219 221 223 225 224 222 220 220 220 220
346 349 350 353 356 357 357 358 359 1 2 5 7 9 10 12 13 11 8 5 2 357 345 320 266 230 219 217 216 216 214 211 205 200 197 194 191 190 190 190 190 192 193 194 196 197 197 198 199 200 201 204 206 208 210 211 212 213 214 215 216 217 218 217 218 219 221 224 225 224 223 223 225 226
345 347 348 352 356 357 357 358 358 360 1 3 5 7 9 11 12 13 12 8 5 2 356 345 319 260 228 220 218 217 216 213 211 208 205 202 199 197 196 194 193 195 196 197 198 200 200 202 203 203 203 205 206 208 209 211 213 215 216 215 215 216 218 218 218 219 220 222 223 223 223 224 226 228
344 346 347 350 354 356 357 358 358 359 360 1 2 5 7 9 11 13 13 12 9 5 1 355 345 317 256 228 221 220 218 216 215 214 213 210 206 203 201 200 199 198 199 200 201 202 202 204 205 206 207 208 209 210 211 212 214 217 218 218 216 215 216 218 219 220 221 222 223 224 224 224 226 227
342 344 345 348 352 355 357 357 358 358 359 359 0 2 4 7 9 11 13 13 12 10 5 359 352 342 312 255 231 224 222 221 220 218 217 216 214 210 208 205 204 203 202 203 204 204 205 205 207 208 209 211 212 213 213 213 214 215 216 217 217 216 215 216 218 220 222 223 224 224 225 225 227 228
339 343 344 347 350 354 356 356 357 358 359 358 359 360 1 3 6 8 11 13 13 13 10 4 356 349 336 306 258 235 228 225 224 223 222 220 219 217 215 212 210 208 206 206 206 207 207 208 208 209 210 211 213 215 215 214 214 213 213 214 215 216 216 215 215 217 220 222 222 222 223 224 225 225